www.pogodaiklimat.ru

Погода и климат >> Архив погоды >> Оман >> Sohar Majis


ПОГОДА в Sohar Majis

  • Прогноз погоды в Sohar Majis
  • Монитор погоды в Sohar Majis
  • Климат города

АРХИВ ПОГОДЫ в Sohar Majis

Время (UTC), дата Ветер
(напр.,м/с)
 
Видим.   Явления Облачность Т
(С)
Тd
(С)
f
(%)
Тe
(С)
Тes
(С)
Комфортность P
(гПа)
Po
(гПа)
Тmin
(С)
Tmax
(С)
R
(мм)
R24
(мм)
S
(см)
12 12.12 В 5 н/о н/о +26.2 +17.6 59 +30 +30 душно 1017.0 1016.6
15 12.12 В 2 н/о н/о +24.2 +17.1 65 +28 +28 душно 1018.5 1018.0
18 12.12 Ю 2 н/о н/о +22.4 +16.7 70 +27 +27 душно 1019.0 1018.5 +27.9
21 12.12 ЮЗ 2 н/о н/о +20.6 +16.1 75 +24 +24 комфорт 1018.6 1018.2
00 13.12 ЮЗ 2 н/о н/о +19.6 +15.7 78 +22 +22 комфорт 1018.8 1018.3
03 13.12 ЮЗ 2 н/о н/о +19.8 +16.0 79 +23 +23 комфорт 1019.9 1019.4
06 13.12 В 2 н/о н/о +24.1 +17.6 67 +28 +28 душно 1021.6 1021.2 +18.5
09 13.12 В 4 н/о н/о +24.9 +18.2 66 +29 +29 душно 1019.8 1019.3
12 13.12 В 5 н/о н/о +25.1 +17.0 61 +29 +29 душно 1018.6 1018.1
15 13.12 Ю 1 10 км ясно +23.5 +16.1 63 +27 +27 душно 1019.8 1019.6
18 13.12 Ю 2 н/о н/о +22.7 +16.0 66 +27 +27 душно 1020.3 1019.9 +25.8
21 13.12 З 2 н/о н/о +22.9 +16.4 67 +28 +28 душно 1019.7 1019.2
00 14.12 З 2 н/о н/о +22.4 +16.0 67 +27 +27 душно 1019.4 1018.9
03 14.12 З 2 н/о н/о +21.9 +16.3 71 +26 +26 душно 1020.8 1020.3
06 14.12 С 2 10 км ясно +25.2 +17.7 63 +29 +36 душно 1021.8 1021.6 +21.7
09 14.12 СВ 4 н/о н/о +26.1 +17.8 60 +30 +30 душно 1019.9 1019.4
12 14.12 СВ 4 10 км 4/4 750 м
[Cu Sc]
+25.9 +18.8 65 +31 +32 очень
душно
1018.6 1018.4
15 14.12 СВ 3 10 км 3/3 750 м
[Sc diur, vesp]
+24.9 +20.0 74 +30 +30 душно 1020.3 1020.1
18 14.12 Ю 2 н/о н/о +23.8 +18.5 72 +28 +28 душно 1020.9 1020.4 +26.8
21 14.12 ЮЗ 1 н/о н/о +22.6 +18.3 77 +28 +28 душно 1020.1 1019.6
00 15.12 З 2 н/о н/о +22.6 +17.4 72 +27 +27 душно 1019.6 1019.1
03 15.12 З 1 н/о н/о +21.8 +17.4 76 +26 +26 душно 1020.8 1020.3
06 15.12 С 2 10 км 8/5 750 м
[Sc diur, vesp Ac trans]
+25.6 +17.5 61 +30 +32 душно 1022.0 1021.8 +21.3
09 15.12 В 4 10 км 6/4 900 м
[Sc diur, vesp Ac trans]
+27.0 +15.1 48 +30 +33 душно 1019.7 1019.5
12 15.12 В 5 н/о н/о +26.1 +14.5 49 +29 +29 жарко 1019.3 1018.9
15 15.12 В 4 н/о н/о +24.7 +13.7 50 +27 +27 жарко 1020.9 1020.5
18 15.12 ЮЗ 2 н/о н/о +22.5 +12.9 55 +25 +25 комфорт 1021.4 1021.0 +27.4
21 15.12 ЮЗ 2 н/о н/о +21.9 +14.0 61 +25 +25 комфорт 1020.8 1020.3
00 16.12 З 1 н/о н/о +21.9 +13.8 60 +25 +25 комфорт 1020.9 1020.4
03 16.12 ЮЗ 2 н/о н/о +19.4 +13.2 67 +22 +22 комфорт 1022.3 1021.8
06 16.12 С 1 н/о н/о +24.7 +13.8 51 +27 +27 жарко 1024.1 1023.6 +18.6
09 16.12 СВ 3 н/о н/о +25.6 +14.8 51 +28 +28 жарко 1022.0 1021.5
12 16.12 СВ 4 н/о н/о +25.4 +14.8 52 +28 +28 жарко 1020.5 1020.0
15 16.12 В 3 н/о н/о +24.3 +14.8 55 +27 +27 жарко 1021.9 1021.5
18 16.12 В 3 н/о н/о +23.9 +14.7 56 +27 +27 жарко 1022.4 1021.9 +26.2
21 16.12 ЮЗ 2 н/о н/о +20.8 +14.6 68 +24 +24 комфорт 1021.7 1021.2
00 17.12 З 2 н/о н/о +21.8 +15.2 66 +25 +25 комфорт 1021.0 1020.5
03 17.12 СЗ 2 н/о н/о +20.2 +14.4 69 +23 +23 комфорт 1022.0 1021.5
06 17.12 СВ 1 н/о н/о +24.6 +16.2 60 +28 +28 душно 1023.5 1023.0 +20.1
09 17.12 В 3 10 км 3/3 900 м
[Sc diur, vesp]
+25.5 +14.7 51 +28 +33 жарко 1020.7 1020.5
12 17.12 СВ 3 н/о н/о +25.0 +14.0 50 +27 +27 жарко 1019.6 1019.1
15 17.12 В 3 н/о н/о +24.2 +13.4 51 +26 +26 жарко 1020.7 1020.2
18 17.12 ЮЗ 2 н/о н/о +21.6 +11.6 53 +24 +24 комфорт 1021.3 1020.8 +25.8
21 17.12 ЮЗ 2 н/о н/о +20.5 +10.4 52 +23 +23 комфорт 1020.3 1019.8
00 18.12 ЮЗ 2 н/о н/о +18.9 +10.7 59 +20 +20 1020.1 1019.6
03 18.12 З 2 н/о н/о +20.1 +11.8 59 +22 +22 комфорт 1021.6 1021.1
06 18.12 Ю 2 10 км ясно +24.6 +11.6 44 +26 +32 жарко 1022.4 1022.2 +17.2
09 18.12 ЮВ 6 10 км ясно +26.0 +14.5 49 +28 +33 жарко 1019.4 1019.2
12 18.12 В 6 н/о н/о +24.9 +15.1 54 +28 +28 жарко 1018.2 1017.8
15 18.12 Ю 2 10 км ясно +22.7 +14.8 61 +26 +26 жарко 1019.3 1019.1
18 18.12 Ю 2 н/о н/о +21.9 +14.3 62 +25 +25 комфорт 1020.0 1019.6 +26.1
21 18.12 З 1 н/о н/о +22.1 +14.5 62 +25 +25 комфорт 1018.9 1018.4
00 19.12 СЗ 5 н/о н/о +21.9 +11.9 53 +24 +24 комфорт 1018.2 1017.7
03 19.12 ЮЗ 2 н/о н/о +18.9 +12.2 65 +21 +21 комфорт 1019.7 1019.2
06 19.12 СЗ 2 10 км ясно +24.4 +11.0 43 +26 +33 жарко 1021.3 1021.1 +18.4

 

Местоположение метеостанции Sohar Majis (Оман): широта 24.47 долгота 56.63 высота над уровнем моря 4 м.

В архиве по умолчанию представлена погода в Sohar Majis за последнюю неделю. Архивные данные за месяц целиком и за предыдущие месяцы, начиная с января 2011 года, Вы можете получить, выбрав интересующий диапазон дат из раскрывающегося списка и нажав кнопку "Ввод!".


*Определитесь, кто Вы:
робот инопланетянин человек

Внимание! Время в таблицах - всемирное. Для получения местного времени необходимо прибавить поправку, которая в Sohar Majis равна 4 ч.

Смотрите также архив погоды в соседних городах и на ближайших метеорологических станциях:

Погода в Qumayra (Оман) (74 км)
Погода в Fujairah (ОАЭ) (76 км)
Погода в Buraimi (Оман) (90 км)
Погода в Suwaiq (Оман) (97 км)
Погода в Al Ain Int Airport (ОАЭ) (107 км)
Погода в Ibri (Оман) (117 км)
Погода в Diba (Оман) (134 км)
Погода в Rustaq (Оман) (144 км)
Погода в Ras Al Khaimah Int Airport (ОАЭ) (146 км)
Погода в Sharjah (ОАЭ) (147 км)

Пояснения к столбцам:

Ветер - указаны скорость ветра в м/с - средняя за 10 мин, порывы в срок и между сроками (в фигурных скобках) и направление, откуда дует ветер: С - северный, СВ - северо-восточный, В - восточный, ЮВ - юго-восточный, Ю - южный, ЮЗ - юго-западный, З - западный, СЗ - северо-западный.
Видимость - горизонтальная дальность видимости в метрах или километрах. При видимости от 1 до 10 км при отсутствии осадков обычно наблюдается дымка, при ухудшении видимости до 1 км и менее - туман. В сухую погоду видимость может ухудшаться дымом, пылью или мглою.
Явления - указаны атмосферные явления, наблюдавшиеся в срок или в последний час перед сроком; фигурными скобками обозначены явления, наблюдавшиеся между сроками (за 1-3 часа до срока); квадратными скобками обозначены град или гололедные отложения с указанием их диаметра в мм.
Облачность - указаны через наклонную черту общая и нижняя облачность в баллах и высота нижней границы облаков в метрах; квадратными скобками обозначены формы облаков: Ci - перистые, Cs - перисто-слоистые, Cc - перисто-кучевые, Ac - высококучевые, As - высокослоистые, Sc - слоисто-кучевые, Ns - слоисто-дождевые, Cu - кучевые, Cb - кучево-дождевые. Подробнее классификацию облаков см. в Атласе облаков (PDF).
T - Температура воздуха - температура, измеренная на высоте 2 м над землей.
Td - Температура точки росы - температура, при понижении до которой содержащийся в воздухе водяной пар достигнет насыщения.
f - Относительная влажность воздуха - влажноcть воздуха, измеренная на высоте 2 м над землей.
Te - Эффективная температура - температура, которую ощущает одетый по сезону человек в тени. Характеристика душности погоды. При расчете учитывается влияние влажности воздуха и скорости ветра на теплоощущения человека.
Tes - Эффективная температура на солнце - температура, которую ощущает человек, с поправкой на солнечный нагрев. Характеристика знойности погоды. Зависит от высоты солнца над горизонтом, облачности и скорости ветра. Ночью, в пасмурную погоду, а также при ветре 12 м/с и более поправка равна нулю.
P - Атмосферное давление - приведенное к уровню моря атмосферное давление.
Po - Атмосферное давление - измеренное на уровне метеостанции атмосферное давление.
Tmin - Минимальная температура - минимум температуры воздуха на высоте 2 м над землей.
Tmax - Максимальная температура - максимум температуры воздуха на высоте 2 м над землей.
R - Количество осадков - Количество выпавших осадков за период времени, мм. При наведении курсора мыши на число - период времени, за который выпало указанное количество осадков.
R24 - Количество осадков - Количество выпавших осадков за 24 часа, мм.
S - Снежный покров - Высота снежного покрова, см. При наведении курсора мыши на число - состояние снежного покрова и степень покрытия местности в баллах.